Previsão horária em Senevo

Hoje, 25 Fevereiro, Quinta-feira

Tempo Temperatura Precipitação Vento Pressão Humidade
00:00 -14°C° 0 mm 4 m/s 749 mmHg 94%
01:00 -12°C° 0 mm 4 m/s 749 mmHg 95%
02:00 -12°C° 0 mm 4 m/s 748 mmHg 92%
03:00 -12°C° 0 mm 5 m/s 747 mmHg 93%
04:00 -11°C° 0 mm 5 m/s 746 mmHg 94%
05:00 -9°C° 0 mm 6 m/s 745 mmHg 95%
06:00 -6°C° 0.1 mm 6 m/s 744 mmHg 96%
07:00 -4°C° 0.1 mm 6 m/s 743 mmHg 97%
08:00 -2°C° 0 mm 6 m/s 742 mmHg 98%
09:00 -1°C° 0.1 mm 6 m/s 742 mmHg 98%
10:00 -1°C° 0.1 mm 6 m/s 742 mmHg 99%
11:00 -1°C° 0.1 mm 6 m/s 741 mmHg 100%
12:00 0°C° 0 mm 5 m/s 741 mmHg 99%
13:00 0°C° 0 mm 5 m/s 741 mmHg 99%
14:00 0°C° 0 mm 4 m/s 741 mmHg 99%
15:00 0°C° 0.1 mm 4 m/s 742 mmHg 99%
16:00 0°C° 0.1 mm 4 m/s 742 mmHg 99%
17:00 0°C° 0.1 mm 4 m/s 742 mmHg 99%
18:00 0°C° 0.1 mm 4 m/s 742 mmHg 99%
19:00 0°C° 0.1 mm 4 m/s 742 mmHg 99%
20:00 0°C° 0.1 mm 4 m/s 742 mmHg 99%
21:00 0°C° 0.1 mm 4 m/s 742 mmHg 99%
22:00 0°C° 0.1 mm 4 m/s 742 mmHg 99%
23:00 0°C° 0.1 mm 4 m/s 742 mmHg 99%

Amanhã, 26 Fevereiro, Sexta-feira

Tempo Temperatura Precipitação Vento Pressão Humidade
00:00 0°C° 0.1 mm 4 m/s 741 mmHg 99%
01:00 0°C° 0.1 mm 5 m/s 741 mmHg 99%
02:00 0°C° 0.1 mm 5 m/s 741 mmHg 99%
03:00 0°C° 0 mm 5 m/s 741 mmHg 99%
04:00 0°C° 0 mm 5 m/s 740 mmHg 99%
05:00 0°C° 0 mm 5 m/s 740 mmHg 99%
06:00 0°C° 0 mm 5 m/s 739 mmHg 99%
07:00 0°C° 0 mm 5 m/s 739 mmHg 98%
08:00 -1°C° 0 mm 6 m/s 738 mmHg 98%
09:00 -1°C° 0 mm 6 m/s 738 mmHg 98%
10:00 -1°C° 0 mm 6 m/s 737 mmHg 99%
11:00 -1°C° 0 mm 7 m/s 737 mmHg 99%
12:00 -1°C° 0.1 mm 7 m/s 736 mmHg 99%
13:00 -1°C° 0.1 mm 6 m/s 736 mmHg 99%
14:00 +1°C° 0.1 mm 6 m/s 736 mmHg 99%
15:00 -1°C° 0 mm 6 m/s 735 mmHg 97%
16:00 -1°C° 0 mm 6 m/s 735 mmHg 95%
17:00 -1°C° 0 mm 6 m/s 735 mmHg 93%
18:00 -1°C° 0 mm 6 m/s 735 mmHg 92%
19:00 -1°C° 0 mm 6 m/s 735 mmHg 91%
20:00 -1°C° 0 mm 6 m/s 735 mmHg 90%
21:00 -2°C° 0 mm 6 m/s 735 mmHg 90%
22:00 -2°C° 0 mm 6 m/s 734 mmHg 90%
23:00 -2°C° 0 mm 6 m/s 734 mmHg 89%

Depois de amanhã, 27 Fevereiro, Sábado

Tempo Temperatura Precipitação Vento Pressão Humidade
00:00 -2°C° 0 mm 6 m/s 734 mmHg 91%
01:00 -2°C° 0 mm 6 m/s 734 mmHg 94%
02:00 -2°C° 0 mm 6 m/s 734 mmHg 96%
03:00 -2°C° 0 mm 6 m/s 733 mmHg 96%
04:00 -2°C° 0 mm 6 m/s 733 mmHg 96%
05:00 -2°C° 0 mm 6 m/s 733 mmHg 97%
06:00 -1°C° 0 mm 5 m/s 733 mmHg 96%
07:00 -1°C° 0 mm 5 m/s 733 mmHg 96%
08:00 -1°C° 0 mm 5 m/s 733 mmHg 96%
09:00 -1°C° 0 mm 5 m/s 733 mmHg 97%
10:00 -1°C° 0 mm 5 m/s 733 mmHg 97%
11:00 -1°C° 0 mm 5 m/s 733 mmHg 98%
12:00 -1°C° 0 mm 5 m/s 734 mmHg 96%
13:00 -1°C° 0 mm 5 m/s 734 mmHg 95%
14:00 -1°C° 0 mm 5 m/s 735 mmHg 93%
15:00 -2°C° 0 mm 5 m/s 735 mmHg 91%
16:00 -4°C° 0 mm 5 m/s 736 mmHg 89%
17:00 -4°C° 0 mm 4 m/s 736 mmHg 87%
18:00 -5°C° 0 mm 4 m/s 737 mmHg 88%
19:00 -7°C° 0 mm 4 m/s 737 mmHg 89%
20:00 -7°C° 0 mm 4 m/s 738 mmHg 90%
21:00 -8°C° 0 mm 4 m/s 739 mmHg 91%
22:00 -9°C° 0 mm 4 m/s 739 mmHg 91%
23:00 -9°C° 0 mm 4 m/s 739 mmHg 92%

28 Fevereiro, Domingo

Tempo Temperatura Precipitação Vento Pressão Humidade
00:00 -9°C° 0 mm 3 m/s 740 mmHg 92%
01:00 -9°C° 0 mm 3 m/s 740 mmHg 92%
02:00 -9°C° 0 mm 3 m/s 741 mmHg 93%
03:00 -9°C° 0 mm 3 m/s 741 mmHg 93%
04:00 -9°C° 0 mm 3 m/s 741 mmHg 94%
05:00 -9°C° 0 mm 3 m/s 741 mmHg 94%
06:00 -9°C° 0.1 mm 3 m/s 742 mmHg 93%
07:00 -8°C° 0.1 mm 3 m/s 742 mmHg 92%
08:00 -9°C° 0.1 mm 4 m/s 743 mmHg 91%
09:00 -8°C° 0 mm 4 m/s 743 mmHg 90%
10:00 -8°C° 0 mm 4 m/s 743 mmHg 88%
11:00 -7°C° 0 mm 4 m/s 743 mmHg 87%
12:00 -7°C° 0 mm 4 m/s 744 mmHg 86%
13:00 -5°C° 0 mm 4 m/s 744 mmHg 86%
14:00 -5°C° 0 mm 4 m/s 744 mmHg 85%
15:00 -5°C° 0 mm 4 m/s 745 mmHg 88%
16:00 -5°C° 0 mm 3 m/s 745 mmHg 91%
17:00 -5°C° 0 mm 3 m/s 745 mmHg 93%
18:00 -6°C° 0 mm 3 m/s 746 mmHg 93%
19:00 -6°C° 0 mm 3 m/s 746 mmHg 94%
20:00 -6°C° 0 mm 3 m/s 747 mmHg 94%
21:00 -6°C° 0 mm 3 m/s 747 mmHg 94%
22:00 -6°C° 0 mm 2 m/s 748 mmHg 94%
23:00 -6°C° 0 mm 2 m/s 748 mmHg 94%

1 Março, Segunda-feira

Tempo Temperatura Precipitação Vento Pressão Humidade
00:00 -6°C° 0 mm 2 m/s 748 mmHg 93%
01:00 -6°C° 0 mm 2 m/s 749 mmHg 93%
02:00 -6°C° 0 mm 2 m/s 749 mmHg 92%
03:00 -6°C° 0 mm 2 m/s 749 mmHg 93%
04:00 -6°C° 0 mm 2 m/s 749 mmHg 93%
05:00 -6°C° 0 mm 2 m/s 749 mmHg 94%
06:00 -6°C° 0 mm 2 m/s 749 mmHg 93%
07:00 -6°C° 0 mm 2 m/s 749 mmHg 93%
08:00 -7°C° 0 mm 3 m/s 749 mmHg 93%
09:00 -6°C° 0 mm 3 m/s 749 mmHg 92%
10:00 -5°C° 0 mm 4 m/s 749 mmHg 91%
11:00 -4°C° 0 mm 4 m/s 749 mmHg 91%
12:00 -5°C° 0 mm 5 m/s 748 mmHg 91%
13:00 -4°C° 0 mm 5 m/s 748 mmHg 92%
14:00 -4°C° 0 mm 6 m/s 748 mmHg 92%
15:00 -2°C° 0 mm 5 m/s 747 mmHg 92%
16:00 -2°C° 0 mm 5 m/s 747 mmHg 92%
17:00 -2°C° 0 mm 5 m/s 746 mmHg 92%
18:00 -2°C° 0 mm 5 m/s 746 mmHg 92%
19:00 -2°C° 0 mm 5 m/s 745 mmHg 92%
20:00 -4°C° 0 mm 6 m/s 745 mmHg 92%
21:00 -3°C° 0 mm 6 m/s 744 mmHg 92%
22:00 -3°C° 0 mm 6 m/s 744 mmHg 92%
23:00 -3°C° 0 mm 6 m/s 744 mmHg 92%

2 Março, Terça-feira

Tempo Temperatura Precipitação Vento Pressão Humidade
00:00 -3°C° 0 mm 6 m/s 743 mmHg 92%
01:00 -2°C° 0 mm 6 m/s 742 mmHg 91%
02:00 -2°C° 0 mm 6 m/s 742 mmHg 91%
03:00 -2°C° 0 mm 6 m/s 741 mmHg 91%
04:00 -2°C° 0 mm 6 m/s 741 mmHg 91%
05:00 -2°C° 0 mm 6 m/s 741 mmHg 91%
06:00 -2°C° 0 mm 6 m/s 741 mmHg 91%
07:00 -2°C° 0 mm 6 m/s 741 mmHg 91%
08:00 -3°C° 0 mm 6 m/s 741 mmHg 91%
09:00 -2°C° 0 mm 6 m/s 741 mmHg 91%
10:00 -2°C° 0 mm 6 m/s 741 mmHg 91%
11:00 -2°C° 0 mm 6 m/s 741 mmHg 91%
12:00 -2°C° 0 mm 6 m/s 741 mmHg 90%
13:00 -2°C° 0 mm 6 m/s 741 mmHg 89%
14:00 -2°C° 0 mm 6 m/s 740 mmHg 89%
15:00 -2°C° 0.1 mm 6 m/s 740 mmHg 91%
16:00 -3°C° 0.1 mm 6 m/s 740 mmHg 93%
17:00 -3°C° 0.1 mm 6 m/s 740 mmHg 96%
18:00 -2°C° 0.1 mm 5 m/s 740 mmHg 94%
19:00 -2°C° 0.1 mm 5 m/s 740 mmHg 93%
20:00 -4°C° 0.1 mm 5 m/s 740 mmHg 91%
21:00 -4°C° 0 mm 5 m/s 740 mmHg 91%
22:00 -3°C° 0 mm 4 m/s 740 mmHg 90%
23:00 -3°C° 0 mm 4 m/s 740 mmHg 90%
Mostrar mais

Necessitamos do seu Consentimento

A Meteoprog e os seus Fornecedores de Serviços podem armazenar e aceder a dados pessoais como cookies, identificadores do dispositivo ou outras tecnologias semelhantes existentes no seu dispositivo e processar estes dados para personalizar conteúdos e anúncios, assim como funcionalidades nas redes sociais e análise de tráfego.

  • Armazenar e/ou aceder a informações no seu dispositivo

    Os cookies, identificadores do dispositivo ou outras informações podem ser armazenados ou acedidos no seu dispositivo, para os fins acima indicados.

  • Anúncios e conteúdos personalizados, medição de anúncios e conteúdos, dados sobre o público-alvo e desenvolvimento de produtos

    Os anúncios e os conteúdos podem ser personalizados com base num perfil. Podem ser adicionados dados adicionais para uma maior personalização dos anúncios e dos conteúdos. A eficácia dos anúncios e dos conteúdos pode ser medida. Podem ser obtidas informações sobre o público que visualizou os anúncios e os conteúdos. Estes dados podem ser usados para desenvolver ou melhorar sistemas, softwares ou a experiência do utilizador.

Ao clicar em "Eu concordo”, permitirá o uso de cookies, identificadores do dispositivo e web beacons mencionados ou outras tecnologias semelhantes. As configurações do navegador do seu dispositivo podem ser alteradas.

Para certos fins, podem ser invocados interesses legítimos ao invés de consentimento. Pode ler mais informação sobre este assunto na nossa Política de Privacidade e Cookies.